User: anonymous   Login
Location: College Park
(38.9810°N, 76.9370°W)
Time: 13:45:44
(UTC-04:00)
Language:

N. Korean satellite - Orbit

View from above orbital plane
View from above orbital plane
View from above satellite
View from above satellite

Ground track
Ground track

The orbit data is extracted from the following two-line orbital elements,

1 39026U 12072A   18198.50016913  .00001115  00000-0  44159-4 0  9999
2 39026  97.2099 207.8352 0038084 213.3457 146.5383 15.26836684310286
Epoch (UTC): 17 July 2018 12:00:14
Eccentricity: 0.0038084
inclination: 97.2099°
perigee height: 459 km
apogee height: 511 km
right ascension of ascending node: 207.8352°
argument of perigee: 213.3457°
revolutions per day: 15.26836684
mean anomaly at epoch: 146.5383°
orbit number at epoch: 31028

The dashed part of the orbit path shows where the satellite is in the earth's shadow,  

DLR